Flag for Germany Weather past 2 weeks in Bad Nauheim, Hesse, Germany

Now
83 °F

Sunny.


Feels Like: 81 °F
Forecast: 60 / 85 °F
Wind: 3 mph from Northeast

Location: Giessen

Current Time: Jun 30, 2015 at 7:08:02 PM

Latest Report: Jun 30, 2015 at 6:00 PM


Visibility: 25 mi

Pressure: 30.09 "Hg

Humidity: 28%

Dew point: 47 °F

Location of Bad NauheimLocation

Historic Weather in Bad Nauheim — Graph

°F

Bad Nauheim temperature yesterday

Maximum temperature yesterday: 83 °F (at 4:00 PM)
Minimum temperature yesterday: 59 °F (at 5:00 AM)
Average temperature yesterday: 70 °F

Past Weeks' High & Low Weather Summary

 TemperatureHumidityPressure
High83 °F (Jun 29, 4:00 PM)97% (Jun 22, 11:00 PM)30.32 "Hg (Jun 22, 11:00 PM)
Low43 °F (Jun 17, 5:00 AM)27% (Jun 29, 6:00 PM)29.69 "Hg (Jun 23, 1:00 AM)
Average60 °F68%30.08 "Hg
* Reported Jun 15 4:00 PM — Jun 30 4:00 PM, Bad Nauheim, Weather by CustomWeather, © 2015

Note: Actual official high and low records may vary slightly from our data, if they occured in-between our weather recording intervals... More about our weather records

Advertising

Bad Nauheim weather history for previous 24 hours

 ConditionsComfort  
Time TempWeatherWind HumidityBarometerVisibility
4:00 PM
Tue, Jun 30
82 °FSunny.3 mph30%30.11 "Hg25 mi
3:00 PM81 °FSunny.3 mph31%30.13 "Hg31 mi
2:00 PM80 °FSunny.3 mph34%30.14 "Hg19 mi
1:00 PM78 °FSunny.3 mph35%30.15 "Hg31 mi
12:00 PM76 °FSunny.3 mph40%30.16 "Hg28 mi
11:00 AM74 °FSunny.3 mph43%30.17 "Hg25 mi
10:00 AM71 °FSunny.2 mph58%30.18 "Hg22 mi
9:00 AM67 °FSunny.2 mph65%30.19 "Hg25 mi
8:00 AM62 °FSunny.1 mph72%30.19 "Hg19 mi
7:00 AM58 °FSunny.1 mph83%30.19 "Hg16 mi
5:00 AM54 °FPassing clouds.1 mph90%30.19 "Hg14 mi
4:00 AM57 °FPassing clouds.1 mph82%30.18 "Hg22 mi
3:00 AM59 °FOvercast.1 mph77%30.18 "Hg28 mi
2:00 AM61 °FOvercast.2 mph74%30.18 "Hg28 mi
1:00 AM60 °FOvercast.1 mph76%30.19 "Hg28 mi
12:00 AM65 °FOvercast.2 mph61%30.18 "Hg34 mi
11:00 PM
Mon, Jun 29
66 °FOvercast.3 mph60%30.18 "Hg34 mi
10:00 PM70 °FOvercast.1 mph51%30.15 "Hg25 mi
9:00 PM72 °FPartly sunny.3 mph44%30.13 "Hg43 mi
8:00 PM77 °FPartly sunny.5 mph33%30.11 "Hg37 mi
7:00 PM80 °FPassing clouds.3 mph31%30.10 "Hg34 mi
Weather by CustomWeather, © 2015

See weather overviewHow to use our weather pages